| time (UTC) | temp F | wind direction | speed knots | gust knots | rain 1hr in | rain 24hr in | rain mn in | humidity % | barometer mb |
| 20260504190003 | 67 | 149 | 6.1 | 9.6 | 0.00 | 0.00 | 0.00 | 46 | 1012.4 |
| 20260504183003 | 66 | 131 | 4.3 | 10.4 | 0.00 | 0.00 | 0.00 | 49 | 1012.1 |
| 20260504180024 | 67 | 132 | 2.6 | 4.3 | 0.00 | 0.00 | 0.00 | 52 | 1011.9 |
| 20260504173003 | 67 | 104 | 1.7 | 1.7 | 0.00 | 0.00 | 0.00 | 53 | 1012.0 |
| 20260504050003 | 55 | 132 | 5.2 | 10.4 | 0.00 | 0.00 | 0.00 | 51 | 1014.6 |
| 20260504043003 | 54 | 125 | 6.1 | 9.6 | 0.00 | 0.00 | 0.00 | 52 | 1014.4 |
| 20260504040004 | 54 | 127 | 6.1 | 13.9 | 0.00 | 0.00 | 0.00 | 51 | 1014.2 |
| 20260504033003 | 54 | 118 | 8.7 | 14.8 | 0.00 | 0.00 | 0.00 | 51 | 1014.1 |
| 20260504030024 | 54 | 116 | 7.0 | 13.0 | 0.00 | 0.00 | 0.00 | 49 | 1014.3 |
| 20260504023003 | 54 | 120 | 7.0 | 12.2 | 0.00 | 0.00 | 0.00 | 49 | 1014.2 |
| 20260504020003 | 55 | 125 | 7.0 | 13.9 | 0.00 | 0.00 | 0.00 | 47 | 1014.1 |
| 20260504013003 | 55 | 125 | 7.0 | 13.0 | 0.00 | 0.00 | 0.00 | 47 | 1014.3 |
| 20260504010024 | 56 | 127 | 7.8 | 13.9 | 0.00 | 0.00 | 0.00 | 46 | 1014.1 |
| 20260504003025 | 56 | 130 | 7.8 | 13.0 | 0.00 | 0.00 | 0.00 | 46 | 1014.2 |
| 20260504000003 | 56 | 121 | 7.8 | 13.0 | 0.00 | 0.00 | 0.00 | 45 | 1014.3 |
| 20260503233003 | 57 | 127 | 7.0 | 10.4 | 0.00 | 0.00 | 0.00 | 45 | 1014.6 |
| 20260503230004 | 57 | 123 | 7.0 | 11.3 | 0.00 | 0.00 | 0.00 | 45 | 1014.4 |
| 20260503223024 | 58 | 123 | 7.0 | 11.3 | 0.00 | 0.00 | 0.00 | 45 | 1014.7 |
| 20260503220024 | 58 | 128 | 7.8 | 13.0 | 0.00 | 0.00 | 0.00 | 46 | 1014.8 |
| 20260503213003 | 59 | 129 | 6.1 | 11.3 | 0.00 | 0.00 | 0.00 | 46 | 1015.0 |
| 20260503210003 | 60 | 120 | 6.1 | 9.6 | 0.00 | 0.00 | 0.00 | 44 | 1014.9 |
| 20260503203003 | 61 | 121 | 5.2 | 7.8 | 0.00 | 0.00 | 0.00 | 44 | 1015.1 |
| 20260503200003 | 61 | 121 | 6.1 | 11.3 | 0.00 | 0.00 | 0.00 | 44 | 1015.1 |
| 20260503193004 | 62 | 131 | 5.2 | 11.3 | 0.00 | 0.00 | 0.00 | 43 | 1015.0 |